Zurück zum Katalog

ECHOSTAR 21

AktivKommunikationGEO
NORAD 42749·PAYLOAD·🇺🇸 United States

Gestartet Jun 8, 2017 von Baikonur Cosmodrome

Loading…

TLE

AktuellSource: Space-Track

Epoche: Sep 14, 2026, 13:51 UTC

1 42749U 17032A   26257.57718102  .00000058  00000-0  00000-0 0  9995
2 42749   1.7817   1.4124 0002341 175.4897  34.6910  1.00272272 33995

Verfolge ECHOSTAR 21 in Echtzeit mit AllMySat

Download on the App Store